Location: Bakov nad Jizerou
(50.4784°N, 14.9394°E)
Time: 09:26:49
(UTC+00:00)

Cosmos 1461 - Pass Details

Date: 16 June 2021
Orbit: 513 x 649 km, 65.0° (Epoch: 04 August)

Event Time Altitude Azimuth Distance (km) Brightness Sun altitude
Rises 21:22:54 0° 311° (NW) 2,815 7.7 -13.0°
Reaches altitude 10° 21:25:30 10° 298° (WNW) 1,884 6.3 -13.2°
Maximum altitude 21:28:54 24° 245° (WSW) 1,181 4.5 -13.4°
Enters shadow 21:31:16 15° 200° (SSW) 1,536 4.6 -13.5°
